Home > Weather > Belgium > Kortrijk > Past weeks

Flag for Belgium Weather past 2 weeks in Kortrijk, Belgium

52 °F


Feels Like: 48 °F
Forecast: 45 / 52 °F
Wind: 10 mph from Southwest

Location: Lille Airport

Current Time: Dec 2, 2015 at 3:22:06 AM

Latest Report: Dec 2, 2015 at 2:30 AM

Visibility: N/A

Pressure: 30.33 "Hg

Humidity: 72%

Dew point: 43 °F

Location of KortrijkLocation

Historic Weather in Kortrijk — Graph


Kortrijk temperature yesterday

Maximum temperature yesterday: 57 °F (at 12:00 PM)
Minimum temperature yesterday: 54 °F (at 12:00 AM)
Average temperature yesterday: 54 °F

Past Weeks' High & Low Weather Summary

High61 °F (Nov 17, 3:30 PM)100% (Nov 19, 6:00 PM)30.33 "Hg (Nov 19, 6:00 PM)
Low28 °F (Nov 23, 6:00 AM)63% (Nov 18, 1:00 PM)29.42 "Hg (Nov 21, 1:00 PM)
Average46 °F87%29.93 "Hg
* Reported Nov 17 2:00 AM — Dec 2 2:00 AM, Kortrijk, Weather by CustomWeather, © 2015

Note: Actual official high and low records may vary slightly from our data, if they occured in-between our weather recording intervals... More about our weather records


Kortrijk weather history for previous 24 hours

Time TempWeatherWind HumidityBarometerVisibility
2:00 AM
Wed, Dec 2
52 °FOvercast.12 mph72%30.33 "HgN/A
1:30 AM52 °FOvercast.12 mph72%30.33 "HgN/A
1:00 AM52 °FOvercast.10 mph77%30.33 "HgN/A
12:30 AM52 °FOvercast.12 mph77%30.33 "HgN/A
12:00 AM54 °FOvercast.10 mph72%30.33 "HgN/A
11:00 PM
Tue, Dec 1
54 °FOvercast.9 mph77%30.33 "HgN/A
10:30 PM54 °FOvercast.9 mph82%30.33 "HgN/A
10:00 PM54 °FOvercast.10 mph82%30.33 "HgN/A
9:30 PM54 °FOvercast.10 mph82%30.33 "HgN/A
9:00 PM54 °FOvercast.9 mph82%30.33 "HgN/A
8:30 PM54 °FOvercast.9 mph88%30.33 "HgN/A
8:00 PM54 °FOvercast.9 mph88%30.33 "HgN/A
7:30 PM54 °FOvercast.10 mph88%30.33 "HgN/A
7:00 PM54 °FMostly cloudy.9 mph88%30.33 "HgN/A
6:30 PM54 °FMostly cloudy.14 mph88%30.33 "HgN/A
6:00 PM54 °FOvercast.15 mph88%30.33 "HgN/A
5:30 PM55 °FOvercast.15 mph82%30.30 "HgN/A
5:00 PM54 °FMostly cloudy.12 mph88%30.30 "HgN/A
4:30 PM54 °FMore clouds than sun.17 mph82%30.30 "HgN/A
4:00 PM55 °FDrizzle. Mostly cloudy.14 mph88%30.30 "HgN/A
3:30 PM55 °FPartly sunny.15 mph82%30.30 "HgN/A
3:00 PM55 °FMostly cloudy.18 mph88%30.30 "HgN/A
2:30 PM55 °FMostly cloudy.15 mph88%30.27 "HgN/A
2:00 PM55 °FOvercast.16 mph88%30.27 "HgN/A
1:30 PM55 °FMostly cloudy.15 mph88%30.27 "HgN/A
1:00 PM55 °FOvercast.16 mph88%30.27 "HgN/A
12:30 PM55 °FOvercast.15 mph88%30.27 "HgN/A
12:00 PM57 °FOvercast.17 mph82%30.27 "HgN/A
11:30 AM55 °FOvercast.20 mph88%30.27 "HgN/A
11:00 AM55 °FOvercast.20 mph88%30.27 "HgN/A
10:30 AM55 °FDrizzle. Overcast.17 mph88%30.24 "HgN/A
10:00 AM55 °FMostly cloudy.20 mph88%30.24 "HgN/A
9:00 AM55 °FDrizzle. Fog.12 mph94%30.24 "Hg1 mi
8:30 AM55 °FDrizzle. Fog.15 mph94%30.21 "Hg3 mi
8:00 AM55 °FDrizzle. Low clouds.14 mph94%30.21 "Hg6 mi
7:30 AM55 °FDrizzle. Low clouds.14 mph94%30.18 "Hg4 mi
7:00 AM55 °FDrizzle. Low clouds.13 mph94%30.18 "HgN/A
6:30 AM55 °FDrizzle. Low clouds.15 mph94%30.18 "HgN/A
6:00 AM54 °FDrizzle. Low clouds.15 mph100%30.18 "HgN/A
5:30 AM54 °FDrizzle. Low clouds.16 mph100%30.15 "Hg4 mi
5:00 AM54 °FDrizzle. Low clouds.17 mph100%30.15 "Hg4 mi
4:30 AM54 °FDrizzle. Low clouds.17 mph100%30.15 "Hg4 mi
4:00 AM54 °FLight rain. Low clouds.17 mph100%30.15 "Hg4 mi
3:30 AM54 °FLight rain. Low clouds.16 mph100%30.15 "Hg4 mi
3:00 AM54 °FLight rain. Low clouds.16 mph100%30.12 "Hg5 mi
Weather by CustomWeather, © 2015

See weather overviewHow to use our weather pages